Location: Davayat
(45.9471°N, 3.1105°E)
Time: 18:10:44
(UTC+00:00)

ARGOS - Pass Details

Date: 01 December 2020
Orbit: 820 x 835 km, 98.4° (Epoch: 23 January)

Event Time Altitude Azimuth Distance (km) Brightness Sun altitude
Exits shadow 18:08:29 27° 29° (NNE) 1,547 4.2 -20.9°
Drops below altitude 10° 18:11:30 10° 3° (N) 2,443 5.5 -21.5°
Sets 18:14:02 0° 354° (N) 3,378 6.3 -21.9°
